[Iaude] MPEC X310: 2023 XP14 [a=2.71,e=0.64,i=15.4,H=22.2]

mpec at marsden.cfa.harvard.edu mpec at marsden.cfa.harvard.edu
Fri Dec 15 17:58:10 EST 2023


M.P.E.C. 2023-X310                            Issued 2023 December 15, 22:56 UT

     The Minor Planet Electronic Circulars contain information on unusual
         minor planets, routine data on comets and natural satellites,
         and occasional editorial announcements.  They are published
    on behalf of Division F of the International Astronomical Union by the
          Minor Planet Center, Smithsonian Astrophysical Observatory,
                          Cambridge, MA 02138, U.S.A.
			  
             Prepared using the Tamkin Foundation Computer Network

                              MPC at CFA.HARVARD.EDU
            URL https://www.minorplanetcenter.net/    ISSN 1523-6714

                                   2023 XP14                                    


Observations:
     K23X14P 1C2023 12 09.35480 05 40 35.86 -20 03 47.4          21.6 GVEX310G96
     K23X14P 1C2023 12 09.36504 05 40 36.85 -20 04 53.9          21.3 GVEX310G96
     K23X14P 1C2023 12 09.37016 05 40 37.32 -20 05 25.3          21.0 GVEX310G96
     K23X14P*,C2023 12 11.22167 05 44 12.61 -23 23 52.6          20.0 RXEX310807
     K23X14P ,C2023 12 11.22438 05 44 12.90 -23 24 10.7          20.0 RXEX310807
     K23X14P ,C2023 12 11.23133 05 44 13.65 -23 24 56.2          20.0 RXEX310807
     K23X14P ,C2023 12 11.23836 05 44 14.42 -23 25 41.9          20.0 RXEX310807
     K23X14P ,C2023 12 11.24115 05 44 14.69 -23 26 00.0          20.0 RXEX310807
     K23X14P 2C2023 12 14.11542505 50 23.473-28 43 14.87         20.2 GVEX310J04
     K23X14P 2C2023 12 14.11713805 50 23.741-28 43 27.30         20.2 GVEX310J04
     K23X14P 2C2023 12 14.11884805 50 23.905-28 43 38.06         20.8 GVEX310J04
     K23X14P 1B2023 12 14.66988105 51 41.702-29 44 26.44         22.0 GVEX310D20
     K23X14P 1C2023 12 15.01528005 52 30.400-30 23 33.54         20.7 GVEX310Z84
     K23X14P 1C2023 12 15.03600305 52 33.048-30 25 51.40         20.8 GVEX310Z84
     K23X14P 1C2023 12 15.05638605 52 35.725-30 28 08.73         21.2 GVEX310Z84

Observer details:
807 Cerro Tololo Observatory, La Serena.  Observers H. Jeon, D. Kim, C. Lee,
    O. Vaduvescu, E. Unda-Sanzana, M. Popescu.  Measurers M. Predatu, O.
    Vaduvescu, M. Popescu, M. Stanescu, L. Curelaru.  1.6-m f/3.0 reflector +
    CCD.
D20 Zadko Observatory, Wallingup Plain.  Observers T. Santana-Ros, B. Gendre,
    F. Ocana, M. Micheli.  Measurer M. Micheli.  1.0-m f/4 reflector + CMO.
G96 Mt. Lemmon Survey.  Observer D. Rankin.  Measurers B. Gray, D. Rankin, F.
    C. Shelly.  1.5-m reflector + 10K CCD.
J04 ESA Optical Ground Station, Tenerife.  Observers P. Ruiz, F. Ocana, M.
    Micheli, L. Conversi.  Measurers M. Micheli, R. Kresken, F. Ocana.
    1.0-m f/4.4 reflector + CCD.
Z84 Calar Alto-Schmidt.  Observers M. Micheli, F. Ocana, R. Kresken, L.
    Conversi.  Measurer M. Micheli.  0.8-m f/3 Schmidt + CCD.

Orbital elements:
2023 XP14                                                Earth MOID = 0.2209 AU
Epoch 2023 Sept. 13.0 TT = JDT 2460200.5                MPC                     
M 330.26986              (2000.0)            P               Q                  
n   0.22121048     Peri.  266.14128     -0.64966939     -0.73566159             
a   2.7076898      Node   226.34825     +0.75910710     -0.61414992             
e   0.6364499      Incl.   15.35995     +0.04106209     -0.28569545             
P   4.46           H   22.24          G   0.15           U   9                  
Residuals in seconds of arc
231209 G96  0.4+  0.2+    231211 807  0.1+  0.1-    231214 J04  0.1-  0.1-
231209 G96 (0.1+  1.3-)   231211 807  0.4+  0.0     231214 D20  0.2+  0.3-
231209 G96  0.4-  0.2-    231211 807  0.1+  0.1+    231215 Z84  0.0   0.4-
231211 807  0.1-  0.6+    231214 J04  0.3-  0.4+    231215 Z84  0.1-  0.4+
231211 807  0.1-  0.1+    231214 J04  0.5+  0.7-    231215 Z84  0.7+  0.9-

Ephemeris:
2023 XP14                a,e,i = 2.71, 0.64, 15                  q = 0.9844
Date    TT    R. A. (2000) Decl.     Delta      r    Elong.  Phase     V
2023 11 15    05 07 04.4 +11 07 29   0.4014  1.3588   152.8    19.4    21.9
...
2023 11 30    05 25 40.3 -05 05 15   0.2848  1.2394   149.1    24.1    21.1
...
2023 12 08    05 38 08.6 -17 41 08   0.2461  1.1805   138.4    33.6    21.0
...
2023 12 14    05 50 08.5 -28 29 49   0.2290  1.1396   127.9    43.0    21.0
2023 12 15    05 52 28.0 -30 21 10   0.2271  1.1331   126.1    44.6    21.0
2023 12 16    05 54 54.4 -32 12 44   0.2256  1.1267   124.2    46.2    21.0
...
2023 12 22    06 12 31.6 -43 11 50   0.2215  1.0904   113.3    56.0    21.2
...
2023 12 30    06 47 43.4 -56 18 12   0.2280  1.0489   100.4    67.2    21.5
...
2024 01 14    09 05 10.5 -72 03 27   0.2615  0.9969    85.3    79.5    22.1

A. U. Tomatic                (C) Copyright 2023 MPC           M.P.E.C. 2023-X310





More information about the Iaude mailing list